Evansville, IN

10:07 AM CST on January 23, 2018 (GMT -0600)
Evansville Regional

Weather History for KEVV - October, 2011

Change the Weather History Date:

Thursday, October 13, 2011

  Actual Average Record
Temperature  
Mean Temperature 62 °F 58 °F  
Max Temperature 69 °F 71 °F 91 °F (1989)
Min Temperature 54 °F 46 °F 25 °F (1988)
Degree Days  
Heating Degree Days 3 7  
Month to date heating degree days 36 79  
Since 1 July heating degree days 82 126  
Cooling Degree Days 0 1  
Month to date cooling degree days 12 20  
Year to date cooling degree days 1642 1386  
Growing Degree Days 12 (Base 50)    
Moisture  
Dew Point 57 °F    
Average Humidity 80    
Maximum Humidity 97    
Minimum Humidity 63    
Precipitation  
Precipitation 0.23 in 0.09 in 1.77 in (2014)
Month to date precipitation 1.02 1.31  
Year to date precipitation 54.20 35.28  
Snow  
Snow 0.00 in 0.00 in 0.00 in (2002)
Month to date snowfall 0.0 0.0  
Since 1 July snowfall 0.0 0.0  
Since 1 September snowfall 0.0 0.0  
Snow Depth 0.00 in    
Sea Level Pressure  
Sea Level Pressure 29.62 in    
Wind  
Wind Speed 6 mph (WSW)    
Max Wind Speed 18 mph    
Max Gust Speed 25 mph    
Visibility 8 miles    
Events Rain    
T = Trace of Precipitation, MM = Missing Value Source: NWS Daily Summary

Daily Weather History Graph

Daily Weather History Graph

Search for Another Location

Airport or City:

Trip Planner

Search our weather history database for the weather conditions in past years. The results will help you decide how hot, cold, wet, or windy it might be!

Date:

Astronomy

Oct. 13, 2011 Rise Set
Actual Time 6:56 AM CDT 6:15 PM CDT
Civil Twilight 6:30 AM CDT 6:42 PM CDT
Nautical Twilight 5:59 AM CDT 7:12 PM CDT
Astronomical Twilight 5:29 AM CDT 7:43 PM CDT
Moon 6:53 PM CDT (10/13) 8:25 AM CDT (10/13)
Length of Visible Light 12h 11m
Length of Day
11h 19m
Full, 98% of the Moon is Illuminated
Oct 13
Full
Oct 19
Last Quarter
Oct 26
New
Nov 2
First Quarter
Nov 10
Full

Hourly Weather History & Observations

Time (CDT) Temp. Dew Point Humidity Pressure Visibility Wind Dir Wind Speed Gust Speed Precip Events Conditions
12:54 AM 63.0 °F 60.1 °F 90% 29.67 in 4.0 mi ESE 4.6 mph - N/A   Mostly Cloudy
1:36 AM 62.6 °F 60.8 °F 94% 29.67 in 5.0 mi South 4.6 mph - N/A   Overcast
1:54 AM 64.0 °F 60.1 °F 87% 29.66 in 9.0 mi WSW 12.7 mph - 0.00 in Rain Light Rain
2:07 AM 62.6 °F 59.0 °F 88% 29.66 in 10.0 mi West 11.5 mph - 0.00 in   Overcast
2:54 AM 62.1 °F 59.0 °F 90% 29.64 in 10.0 mi WSW 4.6 mph - 0.00 in Rain Light Rain
3:08 AM 60.8 °F 59.0 °F 94% 29.64 in 5.0 mi WSW 4.6 mph - 0.01 in Rain Rain
3:54 AM 61.0 °F 59.0 °F 93% 29.62 in 10.0 mi Calm Calm - 0.12 in Rain Light Rain
4:00 AM 60.8 °F 59.0 °F 94% 29.63 in 7.0 mi Calm Calm - 0.00 in Rain Light Rain
4:54 AM 61.0 °F 59.0 °F 93% 29.62 in 6.0 mi Calm Calm - 0.07 in Rain Light Rain
5:11 AM 60.8 °F 59.0 °F 94% 29.62 in 8.0 mi Calm Calm - 0.00 in Rain Light Rain
5:21 AM 60.8 °F 59.0 °F 94% 29.62 in 7.0 mi Calm Calm - 0.01 in Rain Light Rain
5:34 AM 60.8 °F 59.0 °F 94% 29.62 in 9.0 mi Calm Calm - 0.02 in Rain Light Rain
5:54 AM 61.0 °F 59.0 °F 93% 29.61 in 10.0 mi Calm Calm - 0.02 in Rain Light Rain
6:11 AM 60.8 °F 57.2 °F 88% 29.62 in 10.0 mi SSW 3.5 mph - 0.00 in Rain Light Rain
6:22 AM 60.8 °F 57.2 °F 88% 29.61 in 10.0 mi Calm Calm - 0.00 in Rain Light Rain
6:30 AM 60.8 °F 57.2 °F 88% 29.61 in 10.0 mi SW 3.5 mph - 0.00 in   Overcast
6:54 AM 60.1 °F 57.9 °F 93% 29.61 in 10.0 mi SSW 3.5 mph - 0.00 in   Overcast
7:42 AM 60.8 °F 59.0 °F 94% 29.61 in 8.0 mi SW 5.8 mph - N/A   Overcast
7:54 AM 61.0 °F 59.0 °F 93% 29.61 in 3.0 mi SW 5.8 mph - 0.00 in Rain Light Rain
8:16 AM 60.8 °F 59.0 °F 94% 29.61 in 3.0 mi SSW 5.8 mph - 0.00 in Rain Rain
8:28 AM 60.8 °F 59.0 °F 94% 29.61 in 5.0 mi SSW 3.5 mph - 0.01 in Rain Light Rain
8:35 AM 60.8 °F 59.0 °F 94% 29.61 in 7.0 mi SSW 4.6 mph - 0.01 in Rain Light Rain
8:54 AM 62.6 °F 59.0 °F 88% 29.61 in 9.0 mi SW 6.9 mph - N/A   Overcast
9:22 AM 62.6 °F 59.0 °F 88% 29.60 in 10.0 mi WSW 6.9 mph - N/A   Overcast
9:54 AM 64.0 °F 59.0 °F 84% 29.60 in 6.0 mi West 9.2 mph - N/A   Haze
10:01 AM 64.4 °F 59.0 °F 83% 29.60 in 10.0 mi WSW 9.2 mph - N/A   Overcast
10:08 AM 62.6 °F 57.2 °F 82% 29.60 in 6.0 mi WSW 9.2 mph - N/A   Haze
10:54 AM 64.9 °F 59.0 °F 81% 29.59 in 6.0 mi West 6.9 mph - N/A   Haze
11:29 AM 64.4 °F 57.2 °F 77% 29.60 in 3.0 mi WSW 9.2 mph - N/A   Haze
11:37 AM 64.4 °F 57.2 °F 77% 29.60 in 10.0 mi West 8.1 mph - N/A   Overcast
11:54 AM 64.9 °F 57.9 °F 78% 29.59 in 10.0 mi West 5.8 mph - N/A   Overcast
12:54 PM 66.9 °F 57.9 °F 73% 29.57 in 10.0 mi WSW 13.8 mph - N/A   Overcast
1:54 PM 64.4 °F 57.2 °F 77% 29.58 in 6.0 mi West 17.3 mph - N/A Rain Light Rain
2:08 PM 64.4 °F 57.2 °F 77% 29.58 in 10.0 mi West 11.5 mph - 0.01 in   Overcast
2:54 PM 64.9 °F 55.9 °F 73% 29.57 in 10.0 mi WNW 10.4 mph - 0.01 in   Mostly Cloudy
3:54 PM 66.9 °F 54.0 °F 63% 29.58 in 10.0 mi WNW 11.5 mph 21.9 mph N/A   Overcast
4:54 PM 64.9 °F 54.0 °F 68% 29.60 in 10.0 mi WNW 10.4 mph - N/A   Overcast
5:03 PM 64.4 °F 55.4 °F 73% 29.60 in 10.0 mi WNW 11.5 mph 19.6 mph N/A   Overcast
5:54 PM 64.0 °F 55.0 °F 73% 29.60 in 10.0 mi West 8.1 mph - N/A   Overcast
6:54 PM 60.1 °F 55.0 °F 83% 29.62 in 10.0 mi SW 3.5 mph - N/A   Overcast
7:54 PM 57.9 °F 54.0 °F 87% 29.64 in 10.0 mi WSW 3.5 mph - N/A   Clear
8:54 PM 59.0 °F 53.6 °F 82% 29.66 in 10.0 mi WSW 6.9 mph - N/A   Clear
9:54 PM 59.0 °F 52.0 °F 78% 29.67 in 10.0 mi West 4.6 mph - N/A   Partly Cloudy
10:54 PM 57.0 °F 48.9 °F 74% 29.68 in 10.0 mi West 4.6 mph - N/A   Clear
11:54 PM 55.9 °F 46.0 °F 69% 29.68 in 10.0 mi WSW 4.6 mph - N/A   Clear